El Centro Naf Airport El Centro US
ICAO: KNJK
IATA: NJK
Category: Medium
Scheduled Services: No

Elevation: -42 ft
TransAlt. 18000 ft.

Airport Communications:
ATIS:26.927
CLNC DEL:34.02
GND:121.9
PMSV METRO:34.83
TWR:119.1

KNJK Zoom In..

If you have problems with the map follow the link
https://www.worldairports.se/pages/airport.php?
ICAO=KNJK

Runways:

(A) RW 08 length 9503 ft width 200 ft
---- / hdg 77

(B) RW 12 length 6824 ft width 200 ft
---- / hdg 122

(C) RW 26 length 9503 ft width 200 ft
---- / hdg 257

(D) RW 30 length 6824 ft width 200 ft
---- / hdg 302

Location; KNJK
Day. 16 / Time. 11.56 Zulu
* Altimeter: 30.01
* Temperature: 09° c. 48.2°f.
* Wind from: 330° Speed 03 kn.
Dewpoint: -10° c.
Visibility: 10 Statute Miles.
Clouds: Clear (automated report).

KNJK 161156Z AUTO 33003KT 10SM CLR 09/M10 A3001 RMK AO2 SLP177 T00891100 10122 20078 56004


Wind From 330°
Speed 03 kn.

 
 
jpsmedia.com for Web Design worldairports.se 2018   terms of use